Regional Weather Roundup
Issued by NWS

Home | Current Version | Previous Version | Graphics & Text | Print | Product List | Glossary On
Versions: 1 2 3 4 5 6 7 8 9 10 11 12 13 14 15 16 17 18 19 20 21 22 23 24 25 26 27 28 29 30 31 32 33 34 35 36 37 38 39 40 41 42 43 44 45 46 47 48 49 50
705
ASUS44 KJAN 021303
RWRMS

MISSISSIPPI HOURLY WEATHER ROUNDUP
NATIONAL WEATHER SERVICE JACKSON MS
700 AM CST MON MAR 02 2015

NOTE: "FAIR: INDICATES FEW OR NO CLOUDS BELOW 12,000 FEET WITH NO
SIGNIFICANT WEATHER AND/OR OBSTRUCTIONS TO VISIBILITY.

MSZ001>002-007>008-010>013-018>021-025>028-034>036-021400-
NORTHWEST MISSISSIPPI

CITY           SKY/WX    TMP DP  RH WIND       PRES   REMARKS
CLARKSDALE     CLOUDY    36  36 100 N18G25    30.43S WCI  25
CLEVELAND      LGT RAIN  37  37 100 N18       30.39R WCI  26
GREENWOOD        N/A    N/A N/A N/A MISG      30.36R
GREENVILLE     LGT RAIN  38  36  92 N18       30.39R FOG     WCI  28
OLIVE BRANCH   CLOUDY    32  32 100 NE8G18    30.46R WCI  25
OXFORD         CLOUDY    36  34  93 NE10      30.42R FOG     WCI  28
TUNICA         PTSUNNY   34  32  93 N17       30.45F WCI  23
$$

MSZ003>006-009-014>017-022>024-029>033-037>039-021400-
NORTHEAST MISSISSIPPI

CITY           SKY/WX    TMP DP  RH WIND       PRES   REMARKS
COLUMBUS AFB   LGT RAIN  46  46 100 N14       30.35R
CORINTH        MIX PCPN  37  36  93 NE14G20   30.42F WCI  29
GOLDN TRIANGLE CLOUDY    46  45  93 N9        30.33S
STARKVILLE     RAIN      43  43 100 N5        30.36R
TUPELO         CLOUDY    40  37  89 NE18      30.40R WCI  31
$$

MSZ040-058-021400-
CENTRAL MISSISSIPPI

CITY           SKY/WX    TMP DP  RH WIND       PRES   REMARKS
JACKSON INTL   FOG       50  50 100 N6        30.30S VSB 1
JACKSON HAWKNS FOG       49  48  97 N5        30.30S VSB 3/4
MERIDIAN KEY   RAIN      54  54 100 N6        30.31R FOG
MERIDIAN NAS   LGT RAIN  54  53  97 N5        30.32R FOG
VICKSBURG      CLOUDY    43  42  97 N9        30.34R FOG
$$

MSZ059>079-021400-
SOUTH MISSISSIPPI

CITY           SKY/WX    TMP DP  RH WIND       PRES   REMARKS
BROOKHAVEN     CLOUDY    57  57 100 CALM      30.30R
HATTIESBURG    FOG       58  58 100 CALM      30.29R VSB<1/4
MCCOMB         CLOUDY    60  59  96 N3        30.27S FOG
NATCHEZ        CLOUDY    46  45  93 N7        30.30R VSB 1/4
PINE BELT      CLOUDY    57  55  94 CALM      30.29R VSB<1/4
$$

MSZ080>082-021400-
COASTAL MISSISSIPPI

CITY           SKY/WX    TMP DP  RH WIND       PRES   REMARKS
BAY ST LOUIS   CLOUDY    57  55  94 CALM      30.27  FOG
BILOXI         CLOUDY    60  60 100 SE6       30.26S
PASCAGOULA     FOG       58  58 100 CALM      30.28R VSB 1/4
GULFPORT       FOG       60  58  92 E8        30.26S VSB 1
$$



USA.gov is the U.S. government's official web portal to all federal, state and local government web resources and services.